Location: Krasnoyarskiy Pitomnik
(51.1333°N, 71.6167°E)
Time: 23:20:51
(UTC+00:00)

NOSS 2-2 (C) - Pass Details

Date: 07 June 2022
Orbit: 439 x 1763 km, 63.3° (Epoch: 02 June)

Event Time Altitude Azimuth Distance (km) Brightness Sun altitude
Rises 18:49:33 0° 298° (WNW) 3,218 7.7 -15.9°
Reaches altitude 10° 18:53:18 10° 269° (W) 2,564 6.8 -15.9°
Maximum altitude 18:55:38 12° 246° (WSW) 2,559 6.5 -16.0°
Drops below altitude 10° 18:58:13 10° 224° (SW) 2,920 6.6 -16.0°
Enters shadow 18:58:26 10° 222° (SW) 2,963 6.6 -16.0°
